Location: Newark
(40.9833°N, 0.0333°W)
Time: 01:27:23
(UTC+00:00)

deb Explorer IX - Pass Details

Date: 05 November 2020
Orbit: 537 x 1105 km, 38.8° (Epoch: 02 December)

Event Time Altitude Azimuth Distance (km) Brightness Sun altitude
Rises 07:24:40 0° 277° (W) 3,389 ? 7.5°
Reaches altitude 10° 07:27:17 10° 268° (W) 2,543 ? 7.9°
Maximum altitude 07:32:42 33° 207° (SSW) 1,577 ? 8.8°
Drops below altitude 10° 07:38:44 10° 146° (SSE) 2,848 ? 9.8°
Sets 07:41:51 0° 138° (SE) 3,853 ? 10.3°
